Terminal Aerodrome Forecast
Issued by NWS Blacksburg, VA

Current Version | Previous Version | Graphics & Text | Print | Product List | Glossary On
Versions: 1 2 3 4 5 6 7 8 9 10 11 12 13 14 15 16 17 18 19 20 21 22 23 24 25 26 27 28 29 30 31 32 33 34 35 36 37 38 39 40 41 42 43 44 45 46 47 48 49 50
000
FTUS41 KRNK 032239 AAA
TAFBLF
TAF AMD
KBLF 032239Z 0323/0418 16005KT P6SM VCSH OVC018 WS020/24045KT
     FM040000 21012G20KT 5SM BR OVC015
     FM040400 23012G22KT 4SM BR OVC005
     FM041400 26007G14KT 2SM -RA BR OVC003=

USA.gov is the U.S. government's official web portal to all federal, state and local government web resources and services.